TimeEST,TemperatureF,Dew PointF,Humidity,Sea Level PressureIn,VisibilityMPH,Wind Direction,Wind SpeedMPH,Gust SpeedMPH,PrecipitationIn,Events,Conditions,WindDirDegrees,DateUTC
12:15 AM,41.0,33.8,76,30.27,10.0,Calm,Calm,-,N/A,,Clear,0,2013-02-19 05:15:00
12:35 AM,39.2,33.8,81,30.26,10.0,Calm,Calm,-,N/A,,Scattered Clouds,0,2013-02-19 05:35:00
12:55 AM,41.0,33.8,76,30.26,10.0,Calm,Calm,-,N/A,,Clear,0,2013-02-19 05:55:00
1:15 AM,41.0,35.6,81,30.25,10.0,Calm,Calm,-,N/A,,Clear,0,2013-02-19 06:15:00
1:35 AM,41.0,35.6,81,30.25,10.0,Calm,Calm,-,N/A,,Clear,0,2013-02-19 06:35:00
2:15 AM,41.0,39.2,93,30.22,10.0,Calm,Calm,-,N/A,,Clear,0,2013-02-19 07:15:00
2:35 AM,42.8,41.0,93,30.21,10.0,North,3.5,-,N/A,,Clear,360,2013-02-19 07:35:00
2:55 AM,44.6,42.8,93,30.20,10.0,Calm,Calm,-,N/A,,Clear,0,2013-02-19 07:55:00
3:15 AM,42.8,41.0,93,30.19,10.0,Calm,Calm,-,N/A,,Clear,0,2013-02-19 08:15:00
3:35 AM,42.8,41.0,93,30.17,10.0,ESE,3.5,-,N/A,,Clear,110,2013-02-19 08:35:00
3:55 AM,42.8,41.0,93,30.16,10.0,Calm,Calm,-,N/A,,Clear,0,2013-02-19 08:55:00
4:15 AM,42.8,41.0,93,30.16,10.0,Calm,Calm,-,N/A,,Clear,0,2013-02-19 09:15:00
4:35 AM,42.8,41.0,93,30.16,10.0,Calm,Calm,-,N/A,,Scattered Clouds,0,2013-02-19 09:35:00
4:55 AM,42.8,41.0,93,30.16,10.0,Calm,Calm,-,N/A,,Scattered Clouds,0,2013-02-19 09:55:00
5:15 AM,42.8,42.8,100,30.15,10.0,Calm,Calm,-,N/A,,Clear,0,2013-02-19 10:15:00
5:35 AM,42.8,42.8,100,30.15,10.0,Calm,Calm,-,N/A,,Clear,0,2013-02-19 10:35:00
5:55 AM,42.8,42.8,100,30.14,10.0,Calm,Calm,-,N/A,,Clear,0,2013-02-19 10:55:00
6:15 AM,46.4,46.4,100,30.13,10.0,South,4.6,-,N/A,,Scattered Clouds,170,2013-02-19 11:15:00
6:35 AM,53.6,46.4,77,30.12,10.0,South,4.6,-,N/A,,Scattered Clouds,180,2013-02-19 11:35:00
6:55 AM,55.4,46.4,72,30.12,10.0,South,6.9,-,N/A,,Mostly Cloudy,180,2013-02-19 11:55:00
7:15 AM,55.4,46.4,72,30.13,10.0,SSW,6.9,-,N/A,,Overcast,200,2013-02-19 12:15:00
7:55 AM,57.2,48.2,72,30.14,10.0,SSW,4.6,-,N/A,,Scattered Clouds,200,2013-02-19 12:55:00
8:15 AM,59.0,46.4,63,30.15,10.0,SW,8.1,17.3,N/A,,Clear,220,2013-02-19 13:15:00
8:35 AM,60.8,46.4,59,30.14,10.0,SSW,10.4,16.1,N/A,,Scattered Clouds,210,2013-02-19 13:35:00
8:55 AM,60.8,46.4,59,30.14,10.0,SW,12.7,20.7,N/A,,Overcast,220,2013-02-19 13:55:00
9:35 AM,62.6,46.4,55,30.13,10.0,SSW,8.1,-,N/A,,Overcast,210,2013-02-19 14:35:00
9:55 AM,62.6,44.6,52,30.12,10.0,Calm,Calm,-,N/A,,Overcast,0,2013-02-19 14:55:00
10:15 AM,62.6,44.6,52,30.12,10.0,SSW,11.5,21.9,N/A,,Overcast,210,2013-02-19 15:15:00
10:35 AM,64.4,44.6,49,30.11,10.0,SSW,11.5,19.6,N/A,,Overcast,200,2013-02-19 15:35:00
10:55 AM,64.4,46.4,52,30.11,10.0,SSW,11.5,18.4,N/A,,Overcast,210,2013-02-19 15:55:00
11:15 AM,62.6,46.4,55,30.11,10.0,SSW,9.2,17.3,N/A,Rain,Light Rain,210,2013-02-19 16:15:00
11:35 AM,62.6,46.4,55,30.09,10.0,SSW,9.2,20.7,N/A,,Overcast,200,2013-02-19 16:35:00
11:55 AM,62.6,48.2,59,30.09,10.0,South,10.4,20.7,N/A,Rain,Light Rain,190,2013-02-19 16:55:00
12:15 PM,62.6,46.4,55,30.07,10.0,SSW,15.0,23.0,N/A,,Overcast,200,2013-02-19 17:15:00
12:35 PM,60.8,48.2,63,30.06,10.0,South,11.5,18.4,N/A,Rain,Light Rain,190,2013-02-19 17:35:00
12:55 PM,59.0,50.0,72,30.06,10.0,South,9.2,-,N/A,Rain,Light Rain,190,2013-02-19 17:55:00
1:15 PM,59.0,51.8,77,30.04,10.0,SSW,9.2,-,N/A,Rain,Light Rain,200,2013-02-19 18:15:00
1:35 PM,59.0,51.8,77,30.02,10.0,South,9.2,-,N/A,Rain,Light Rain,190,2013-02-19 18:35:00
1:55 PM,59.0,51.8,77,30.02,10.0,SSW,8.1,-,N/A,Rain,Light Rain,200,2013-02-19 18:55:00
2:15 PM,59.0,51.8,77,30.01,7.0,South,4.6,-,N/A,Rain,Light Rain,190,2013-02-19 19:15:00
2:35 PM,59.0,53.6,82,30.00,7.0,Calm,Calm,-,N/A,Rain,Rain,0,2013-02-19 19:35:00
3:15 PM,59.0,55.4,88,29.99,7.0,Calm,Calm,-,N/A,Rain,Light Rain,0,2013-02-19 20:15:00
3:35 PM,59.0,55.4,88,29.99,10.0,SSW,3.5,-,N/A,,Overcast,210,2013-02-19 20:35:00
3:55 PM,59.0,55.4,88,29.99,10.0,WSW,8.1,-,N/A,,Overcast,240,2013-02-19 20:55:00
4:15 PM,59.0,55.4,88,30.00,10.0,West,8.1,-,N/A,,Overcast,270,2013-02-19 21:15:00
4:35 PM,59.0,57.2,94,30.00,10.0,WNW,10.4,-,N/A,,Overcast,290,2013-02-19 21:35:00
4:55 PM,59.0,57.2,94,30.01,10.0,West,6.9,-,N/A,,Overcast,280,2013-02-19 21:55:00
5:15 PM,59.0,55.4,88,30.01,7.0,West,8.1,-,N/A,Rain,Light Rain,260,2013-02-19 22:15:00
5:35 PM,57.2,55.4,94,30.01,4.0,WSW,5.8,-,N/A,,Drizzle,250,2013-02-19 22:35:00
5:55 PM,55.4,55.4,100,30.02,3.0,WSW,8.1,-,N/A,Rain,Light Rain,240,2013-02-19 22:55:00
6:15 PM,55.4,55.4,100,30.02,4.0,SW,6.9,-,N/A,,Drizzle,230,2013-02-19 23:15:00
7:35 PM,55.4,55.4,100,30.04,10.0,West,5.8,-,N/A,,Overcast,270,2013-02-20 00:35:00
7:55 PM,55.4,55.4,100,30.04,10.0,West,5.8,-,N/A,,Mostly Cloudy,260,2013-02-20 00:55:00
8:15 PM,53.6,53.6,100,30.05,10.0,West,5.8,-,N/A,,Scattered Clouds,260,2013-02-20 01:15:00
8:35 PM,53.6,53.6,100,30.05,10.0,West,4.6,-,N/A,,Clear,270,2013-02-20 01:35:00
8:55 PM,53.6,53.6,100,30.05,10.0,WSW,4.6,-,N/A,,Clear,250,2013-02-20 01:55:00
9:15 PM,51.8,51.8,100,30.05,10.0,SW,5.8,-,N/A,,Clear,230,2013-02-20 02:15:00
9:35 PM,51.8,51.8,100,30.06,7.0,WSW,5.8,-,N/A,,Clear,250,2013-02-20 02:35:00
10:15 PM,51.8,51.8,100,30.07,10.0,SW,5.8,-,N/A,,Clear,230,2013-02-20 03:15:00
10:35 PM,51.8,51.8,100,30.06,7.0,SW,5.8,-,N/A,,Clear,230,2013-02-20 03:35:00
10:55 PM,51.8,51.8,100,30.06,10.0,WSW,6.9,-,N/A,,Clear,240,2013-02-20 03:55:00
11:15 PM,51.8,51.8,100,30.06,10.0,WSW,10.4,-,N/A,,Clear,250,2013-02-20 04:15:00
11:35 PM,51.8,51.8,100,30.07,10.0,West,11.5,17.3,N/A,,Clear,270,2013-02-20 04:35:00
11:55 PM,51.8,50.0,94,30.07,10.0,West,9.2,19.6,N/A,,Clear,280,2013-02-20 04:55:00